Showing default

WSF-M, 59481

Orbit data source: Space-Track

WSF-M, 59481 is a payload satellite owned by USSF SSC (US) in SSO that was launched on Thu, 11 Apr 2024 UTC via an FALCON 9 launch vehicle from the Air Force Western Test Range (AFWTR). Payload-class satellites include a variety of spacecraft equipped with specific instruments for various scientific and technological missions. These include communications satellites like Starlink; space stations such as the ISS; scientific satellites like the Hubble; Earth observation satellites from companies like Planet Labs, Umbra, and HawkEye 360; GPS; miniature CubeSats for education and research; and military/defense satellites.

Loading next visibility...
Identifier
59481, 2024-070A
Orbit
SSO
Country
Flag of USUS
Related business
Manufacturer
Ball
Mission
Operational Defense Weather
Bus & Motor
WSF, Unknown motor
Mass
1,200 kg wet, 1,200 kg dry
Launch date (UTC)
2024-04-11 (2 years ago)
Launch vehicle
FALCON 9
Launch site
Air Force Western Test Range (AFWTR)
Object type
Payload
Rocket body
Debris
Shape & HBR
Cyl + 1 Pan + 1 Dish, 2.6 m
Radar Cross Section
4.539 m², Large (>1 m²)

Expand to show TLE details & history
Last TLE update: 2 days ago

TLE from 2 days ago
0 WSF-M
1 59481U 24070A   26171.04109777  .00000023  00000-0  30760-4 0  9997
2 59481  98.7161 178.9480 0004009 326.9596  33.1330 14.20737280113508
Epoch: 2026-06-20T00:59Z
TLE epoch observation values (Epoch: 2026-06-20T00:59:10.847Z)
Latitude
-0°
Longitude
-104.10862°
Altitude
823.358 km
Speed
7.443 km/s
True Right ascension
11h 55m 47s
True Declination
0° 00' 00"
Sunlit
Object was in daylight at epoch
Visualization orbit readout
Latitude
Unknown
Longitude
Unknown
Altitude
Unknown
Speed
Unknown
Apparent Right ascension
Unknown
Apparent Declination
Unknown
Sunlit
N/A
Visualization observer readout
Local Sidereal Time
21:24:20
Azimuth
Unknown
Elevation
Unknown
Doppler factor
Unknown
Orbital elements
Apogee altitude
822.904 km
Perigee altitude
817.133 km
Semi-major axis
7,198.155 km
Eccentricity
0.0004
Inclination
98.7161°
RAAN
178.948°
Arg. of periapsis
326.9596°
True anomaly
33.15812°
Mean anomaly
33.133°
Eccentric anomaly
33.14556°
Mean motion
3.55395 °/min
Orbital period
101.3 mins
BSTAR
0.00003076
Loading maneuver chart data...
Computing Atmospheric mass density...
Loading historical data...
Loading historical data...
Loading historical data...
Loading historical data...
Loading historical data...
Loading historical data...
Loading historical data...
Other satellites on launch #70 in the year 2024 (2024-04-11 UTC)

Documentation

Showing up to 5 results
|